sat.trackr.live / text

‹ back to catalog

ONEWEB-0682

NORAD 56718 · 2023-068J

PAYLOAD ACTIVE UNKNOWN

§ Identity

Operator
Country
UK
Launch date
2023-05-20
Launch site
AFWTR
Launch vehicle
Mass (kg)
RCS (m²)

Purposes: comms

External: N2YO · Heavens-Above · Gunter

§ Orbital elements

Epoch: 2026-09-19T17:21:08.703360Z

Period
109.46 min
Inclination
87.8991°
Eccentricity
0.0001886
Mean motion
13.15548229 rev/d
Perigee alt
1,200.3 km
Apogee alt
1,203.2 km
Semi-major
7,579.9 km
B*
-3.7549e-5
RAAN
240.3480°
Arg perigee
97.8084°
Mean anomaly
262.3261°
Rev number
16,188

§ Raw data

ONEWEB-06821 56718U 23068J   26262.72301740 -.00000001  00000+0 -37549-4 0  99922 56718  87.8991 240.3480 0001886  97.8084 262.3261 13.15548229161887

JSON: /api/v1/satellites/56718 · /tle

For live sub-satellite position, see the globe view (requires WebGL).

§ Visibility from observer

Set your observer location to see the next 7 days of passes ≥ 10°. The values pass through the URL so the page stays shareable.

No JS? Fill the form by hand. The geolocation button needs JavaScript.